カタログに戻る

COSMOS 1481

運用中軍事HEO
NORAD 14182·PAYLOAD·🇷🇺 Russia

打ち上げ Jul 8, 1983 から Plesetsk Cosmodrome

Loading…

次のパス (今後24時間)

TLE

最新Source: Space-Track

元期: Sep 13, 2026, 18:38 UTC

1 14182U 83070A   26256.77647632  .00000748  00000-0  00000-0 0  9996
2 14182  70.4717 247.6774 5661810 224.8592  72.3403  2.03570830241903

AllMySatでCOSMOS 1481をリアルタイム追跡

Download on the App Store